Location: Aigremont
(47.7188°N, 3.8925°E)
Time: 08:51:00
(UTC+00:00)

STARLINK-1115 - Pass Details

Date: 18 February 2020
Orbit: 374 x 385 km, 53.0° (Epoch: 28 March)

Event Time Altitude Azimuth Distance (km) Brightness Sun altitude
Exits shadow 05:41:19 13° 234° (SW) 1,269 5.0 -11.6°
Maximum altitude 05:44:07 74° 151° (SSE) 408 3.0 -11.1°
Drops below altitude 10° 05:47:17 10° 65° (ENE) 1,418 6.7 -10.6°
Sets 05:49:20 0° 63° (ENE) 2,271 7.8 -10.2°
